Orbital Elements at Epoch 2459200.5 (2020-Dec-17.0) TDB
Reference: JPL 35 (heliocentric ecliptic J2000)
Element | Value | Uncertainty (1-sigma) | Units |
e | .08634936333019254 | 3.3946e-08 | |
a | 3.12618422232649 | 1.6772e-08 | au |
q | 2.856240205075705 | 1.0544e-07 | au |
i | 13.37027602884047 | 3.6823e-06 | deg |
node | 60.10962237097244 | 1.5674e-05 | deg |
peri | 349.0855543031793 | 2.908e-05 | deg |
M | 59.28742052605558 | 2.2862e-05 | deg |
tp | 2458868.008664824840 (2020-Jan-19.50866482) | 0.00012889 | TDB |
period | 2018.925424668346 5.53 | 1.6247e-05 4.448e-08 | d yr |
n | .178312678418589 | 1.4349e-09 | deg/d |
Q | 3.396128239577276 | 1.822e-08 | au |
|
| | Orbit Determination Parameters
Additional Information
|